Wind_Speed
4 4 2 2 2 4 5 5 5 5 5 4 3 2 2 2 1 2 2 2 2 2 2 2 1 1 1 1 1 1 1 2 2 2 1 1 1 1 1 1 1 2 3 4 4 5 6 7 8 8 8 9 8 9 10 9 9 9 8 8 9 9 8 9 9 10 10 9 9 9 9 8 7 9 10 10 10 9 11 12 12 13 12 12 10 10 11 13
6 6 3 2 3 5 5 5 5 5 4 3 2 2 2 2 1 1 1 1 1 1 1 1 1 0 1 1 1 1 1 1 1 1 1 1 1 1 1 2 2 2 3 3 3 4 5 6 8 7 7 7 8 9 9 8 8 8 9 8 7 7 8 8 9 10 10 10 9 8 7 5 6 10 9 9 8 8 10 10 11 13 11 11 10 9 10 12
7 6 3 2 5 6 5 5 5 4 4 3 2 2 2 2 1 1 1 1 1 1 1 1 0 0 0 0 0 1 1 1 1 1 1 1 1 1 2 2 3 3 3 3 3 3 5 6 6 5 5 6 7 9 9 8 9 9 9 8 8 8 10 10 10 12 13 12 10 8 8 5 7 10 9 8 7 8 10 10 11 12 10 10 10 10 11 13
7 7 6 5 6 6 5 5 4 4 4 3 3 2 2 2 1 1 1 1 0 1 1 0 0 0 0 0 0 1 1 1 1 0 1 1 1 1 1 2 3 3 4 4 3 4 4 4 3 3 4 5 6 9 9 9 9 8 8 8 9 11 10 10 11 13 14 13 11 11 11 9 9 10 9 9 8 9 10 9 11 11 11 10 10 12 13 15
7 8 7 6 6 5 5 4 4 3 3 3 3 2 2 2 2 2 1 1 1 1 1 1 1 1 1 1 0 1 1 1 1 0 0 1 2 2 2 2 3 3 4 4 4 3 3 2 2 3 4 5 6 7 8 8 8 7 6 7 8 9 8 8 10 12 14 15 12 13 14 13 13 13 12 11 10 10 9 9 10 10 10 9 9 11 13 16
7 7 6 6 5 5 4 3 3 3 3 3 3 3 3 3 3 3 2 2 1 1 2 2 2 2 2 2 1 0 1 1 1 1 0 1 2 2 2 2 3 3 4 4 3 3 2 1 2 4 5 6 6 6 6 7 7 5 3 5 6 6 6 7 9 11 14 13 11 11 13 13 13 14 14 12 10 8 7 7 8 9 8 8 9 11 14 16
7 6 6 5 4 4 4 3 3 3 3 3 3 3 4 4 4 4 4 3 2 2 3 4 4 3 2 2 2 1 0 0 0 0 0 1 2 3 3 3 3 4 4 4 4 4 4 3 2 3 4 4 5 5 6 6 6 4 0 4 4 4 5 7 9 9 11 12 9 8 9 9 9 10 12 11 9 7 5 4 4 6 7 7 8 11 14 14
6 6 5 5 4 4 4 3 3 3 3 4 4 5 5 6 6 5 5 4 3 3 4 4 4 3 3 2 2 2 1 0 0 1 1 1 1 2 3 4 5 5 6 5 5 5 5 5 4 4 4 3 4 5 5 5 4 3 2 1 2 3 4 6 7 7 8 9 8 6 4 4 4 7 8 7 7 6 4 3 2 3 5 6 7 9 11 12
6 6 5 5 4 4 4 4 4 4 4 5 6 7 7 7 7 7 6 5 4 3 3 3 2 2 2 2 2 1 1 1 1 1 1 1 1 1 2 4 4 5 6 6 5 6 7 6 6 6 7 6 6 7 6 4 3 4 4 4 6 4 3 3 4 5 4 5 5 4 2 2 2 4 4 3 5 5 4 4 3 2 2 4 5 6 7 9
6 5 5 5 4 4 4 5 5 5 6 6 7 8 9 8 8 7 6 5 4 3 2 1 1 1 1 1 1 0 0 0 1 0 1 2 2 2 1 2 3 5 5 5 5 6 7 8 7 8 9 9 9 9 7 4 4 6 5 6 8 5 4 3 4 7 5 3 3 3 4 3 1 2 2 3 5 5 6 5 3 2 2 2 2 3 5 6
6 5 5 4 4 4 4 5 5 6 7 7 8 9 9 8 7 6 5 4 3 2 1 0 0 0 0 1 0 1 1 1 1 1 1 1 1 2 1 1 3 4 5 5 5 6 7 8 8 8 10 9 9 10 7 4 5 6 6 7 10 7 5 4 5 7 7 4 2 3 6 6 2 3 3 3 4 4 6 7 5 4 4 4 3 3 3 5
5 4 4 4 4 4 4 5 6 7 8 9 8 7 7 6 5 5 4 3 2 1 0 0 1 1 0 2 2 2 2 2 2 2 2 2 2 1 2 3 4 4 5 5 5 6 7 8 8 9 9 9 8 8 6 5 8 8 8 8 11 9 6 6 6 7 8 6 5 5 7 7 5 6 4 1 2 2 3 5 6 7 6 5 4 4 4 6
4 3 3 3 3 4 5 6 7 8 8 9 7 6 5 4 4 4 3 1 1 1 1 2 2 1 1 2 3 3 3 3 3 3 3 3 3 3 4 5 5 6 6 6 6 6 7 8 9 9 9 8 7 6 5 6 9 10 10 9 11 11 9 10 10 9 9 8 8 8 9 9 9 9 7 4 3 2 3 4 5 7 7 6 6 6 6 6
2 2 2 2 2 3 5 6 7 8 8 7 6 5 4 3 4 3 2 1 1 2 3 3 3 2 2 3 3 4 4 4 5 5 4 5 5 5 6 6 7 8 7 7 8 7 8 9 10 10 10 8 6 5 7 9 11 12 12 10 11 13 13 13 13 13 12 10 9 9 10 13 13 10 6 5 4 3 3 3 4 4 5 6 6 6 5 6
2 1 1 1 2 3 4 5 6 7 7 6 5 4 4 4 4 4 3 3 3 3 4 4 3 3 3 3 3 4 4 5 6 6 5 5 6 7 7 8 8 8 8 8 8 8 8 9 10 10 10 9 7 8 9 11 13 14 12 11 10 13 14 14 15 16 14 12 10 8 9 13 14 11 8 7 6 4 3 3 3 2 3 5 7 7 6 6
3 1 1 2 2 3 4 5 6 6 6 6 5 5 5 5 4 4 4 4 4 4 5 5 4 3 3 3 4 4 4 5 6 6 5 6 7 7 7 8 8 8 8 8 8 8 8 8 8 8 8 9 9 10 10 11 14 14 12 12 11 12 14 15 15 17 17 14 11 9 10 12 13 13 13 10 8 6 4 3 3 3 4 5 7 7 6 6
4 3 2 3 3 4 5 5 6 6 7 7 6 6 6 5 5 5 5 5 5 5 6 6 5 4 3 3 4 4 4 5 6 5 5 6 7 8 7 7 7 7 7 8 8 7 6 6 6 7 7 9 10 10 10 12 13 13 12 12 12 13 16 17 17 17 16 14 12 11 13 14 15 15 14 12 11 8 6 4 3 3 3 5 6 6 6 7
5 4 3 3 4 5 5 6 7 7 7 8 7 7 6 6 6 6 6 6 6 6 6 6 6 6 5 4 4 5 5 6 6 5 5 6 7 7 6 6 5 5 6 7 7 6 6 6 5 6 7 8 8 8 9 10 11 13 14 13 13 15 17 18 18 16 14 13 13 14 15 16 17 16 13 12 12 10 8 6 5 4 4 5 5 5 6 7
6 6 5 5 5 6 6 7 7 7 8 8 8 7 7 7 7 7 7 7 6 6 6 6 6 6 6 5 5 6 6 5 5 4 3 4 6 6 5 4 4 3 4 5 5 5 5 5 5 5 6 6 7 7 7 9 9 11 13 15 15 16 18 19 16 13 12 14 14 14 15 16 18 17 14 13 12 12 10 9 8 6 5 5 6 6 7 9
6 7 7 6 6 7 7 7 7 8 8 8 8 8 8 8 8 9 8 8 7 7 7 7 7 6 6 6 6 5 5 4 4 3 1 2 3 4 3 3 3 2 3 3 3 4 4 4 4 4 5 6 6 6 7 9 10 11 12 14 16 16 17 17 14 12 12 14 14 13 14 15 17 16 14 13 13 12 11 11 11 10 7 7 7 7 9 11
6 7 9 9 8 7 8 7 7 8 8 8 8 9 9 8 9 9 8 8 8 8 8 7 7 6 5 6 6 5 5 5 4 4 2 1 1 2 2 2 2 2 2 3 2 3 2 3 3 3 4 4 5 5 7 9 11 12 11 11 12 12 13 14 13 13 13 14 15 14 14 15 16 15 14 13 13 12 11 11 11 10 9 9 9 9 11 12
7 6 8 10 10 9 9 8 8 8 8 8 9 9 9 8 9 9 9 9 9 8 8 8 8 7 5 6 6 5 4 3 4 4 3 2 3 2 2 2 2 2 2 1 1 2 1 3 4 4 3 3 4 5 8 10 11 10 8 8 8 8 9 11 12 14 15 15 15 14 14 15 14 13 13 12 12 11 10 10 11 10 11 12 12 13 14 15
8 7 7 9 11 12 11 10 9 9 9 9 9 9 10 9 9 10 10 10 9 9 8 8 8 7 6 6 5 5 4 3 4 3 2 2 2 3 3 3 3 2 2 1 1 2 3 3 4 4 3 3 2 4 6 10 10 8 6 6 7 7 7 8 12 15 16 16 15 14 13 14 13 11 11 11 10 9 8 9 11 13 14 15 15 16 16 17
8 8 7 7 9 12 13 12 12 11 11 10 10 10 10 10 10 10 11 11 10 9 9 8 8 7 6 6 6 6 6 6 5 4 4 3 2 2 3 3 3 3 3 2 2 3 3 3 4 4 4 4 3 3 4 6 7 6 6 6 6 7 6 5 9 14 16 16 16 15 14 14 13 12 12 12 10 9 10 11 13 15 17 18 19 19 19 19
9 8 8 8 8 10 13 14 14 14 13 13 12 12 11 11 11 12 12 12 11 11 10 9 9 8 7 8 9 9 9 8 8 6 5 5 4 3 3 3 3 4 5 5 4 3 3 3 3 4 3 3 3 3 3 5 5 5 6 6 5 6 7 6 8 13 16 17 19 19 19 19 18 17 15 15 14 13 13 14 16 18 20 21 22 23 23 23
10 9 9 9 8 8 10 13 15 16 15 15 14 14 13 13 13 13 13 12 12 12 11 11 10 9 9 9 11 12 11 11 10 8 6 6 6 5 4 5 5 6 6 6 4 4 3 2 3 4 4 4 4 4 5 7 7 7 7 8 8 8 10 11 12 13 16 18 21 23 25 25 24 22 20 19 19 18 17 18 19 21 23 24 25 25 26 26
12 11 10 9 9 8 8 11 14 16 16 17 17 16 16 15 15 14 14 13 13 13 13 12 11 11 11 11 12 13 13 12 11 9 8 8 7 6 6 6 7 7 6 6 4 4 4 3 2 4 5 6 7 7 7 9 9 10 10 11 11 11 13 15 16 18 18 20 22 24 27 29 29 26 23 22 22 21 21 21 22 23 24 26 27 27 28 28
14 13 11 10 10 10 9 9 11 14 15 17 18 18 18 17 17 16 16 15 14 14 13 13 13 13 13 12 12 13 14 13 11 11 10 9 9 8 8 8 8 8 7 7 5 4 5 5 5 5 5 7 8 8 9 9 10 11 12 13 12 12 13 15 17 19 20 22 23 24 26 30 31 28 26 24 24 24 24 24 24 25 26 28 28 29 29 30
16 15 13 12 12 11 11 10 10 11 13 15 17 18 19 20 19 18 17 16 16 15 14 15 14 14 15 14 14 15 15 14 13 12 11 11 10 10 10 10 10 10 10 9 8 7 7 7 8 8 8 8 8 9 10 11 11 12 12 13 12 13 13 15 17 18 20 22 24 25 26 28 30 29 27 25 25 25 25 26 26 27 28 29 30 31 31 32
18 16 15 14 14 13 13 12 11 11 12 13 14 16 18 19 20 19 18 17 17 16 16 16 16 16 16 16 16 16 16 15 14 13 13 13 13 13 13 13 12 12 12 11 11 10 9 9 11 12 12 11 11 11 12 13 13 13 13 12 12 14 15 15 16 18 20 21 22 25 26 28 30 28 27 27 26 26 26 27 29 30 31 32 32 33 33 34
20 18 16 16 16 16 15 14 14 13 13 12 13 14 16 17 18 19 18 17 18 18 18 18 18 18 18 17 17 17 17 17 16 15 14 14 14 14 15 15 15 14 14 14 14 14 13 12 13 15 15 15 15 14 14 15 16 16 16 14 13 15 17 17 17 18 20 20 21 25 26 28 30 28 27 27 27 27 28 29 31 32 33 34 34 34 35 36
23 21 18 17 18 19 19 17 16 16 15 15 14 14 15 16 16 16 17 18 19 18 18 19 19 19 19 18 17 18 18 19 18 17 17 16 16 16 17 18 18 18 17 16 17 17 17 16 16 17 18 18 18 18 18 18 19 20 19 18 16 17 17 17 18 19 19 20 22 24 26 28 28 27 27 27 28 28 29 30 32 34 34 35 35 36 38 38
25 23 21 20 20 20 21 21 19 19 18 18 18 17 17 16 15 15 16 19 20 19 19 20 21 21 21 19 19 19 20 21 20 20 19 19 19 19 19 20 21 21 20 20 20 20 21 21 20 20 20 21 21 21 21 22 23 24 23 23 22 21 20 19 19 21 20 21 22 24 26 27 26 25 26 27 28 29 30 32 33 34 35 36 37 38 39 40
26 25 23 22 22 22 23 23 23 22 22 21 21 21 20 19 16 16 18 19 20 20 20 22 22 23 23 22 22 22 22 23 23 22 22 22 23 23 22 23 23 24 23 23 23 23 23 24 24 24 23 24 24 25 24 24 25 26 26 26 26 25 25 24 23 23 23 23 23 24 28 28 26 25 25 25 27 29 31 33 34 35 37 38 39 40 41 42
29 28 26 24 23 24 24 25 25 25 25 25 25 25 24 23 21 20 20 21 21 21 21 22 23 24 25 24 24 24 25 25 25 25 25 25 25 26 25 25 25 26 26 26 26 26 26 25 26 27 28 28 28 28 28 28 28 28 28 28 29 29 29 29 29 28 27 27 24 23 27 28 28 27 25 26 28 29 31 34 36 38 39 40 42 43 44 45
32 32 30 28 26 26 26 27 26 26 26 27 28 28 27 26 25 24 24 23 24 24 24 24 24 25 26 26 26 26 26 27 27 27 28 27 27 27 27 27 27 27 28 29 29 30 29 28 27 28 29 30 31 32 32 32 32 31 31 31 31 32 32 32 33 33 33 33 30 26 27 27 28 28 27 28 30 31 33 36 38 40 42 43 44 46 48 49
33 35 34 32 30 29 28 28 29 28 28 28 29 30 30 30 29 29 28 27 26 27 27 27 27 27 27 28 28 27 27 28 29 29 30 29 30 29 29 29 29 29 30 31 31 32 32 31 30 30 31 31 33 35 35 35 35 35 34 34 34 34 34 35 36 37 37 38 36 33 31 29 28 28 27 29 31 33 36 38 40 42 43 45 47 49 51 52
33 36 37 35 33 33 32 31 31 31 30 30 30 31 31 32 32 32 31 30 30 30 30 30 30 30 30 30 29 30 29 30 31 31 32 32 32 32 31 31 31 31 32 32 33 34 34 34 33 31 31 32 34 36 37 37 37 37 37 36 36 36 37 37 38 40 41 42 42 39 37 33 30 29 29 30 32 34 38 40 41 43 45 46 48 50 52 53
34 35 38 38 36 35 36 35 35 34 33 32 32 32 32 32 33 34 34 34 33 33 33 33 33 33 33 32 32 32 32 33 33 34 34 35 35 34 34 34 34 34 34 34 35 35 35 36 35 32 31 32 34 36 38 39 39 40 40 40 39 39 39 39 40 41 42 44 45 44 42 38 34 33 33 33 34 37 40 42 43 45 46 47 49 51 53 54
36 37 39 40 38 37 37 38 38 38 37 36 35 34 34 34 35 35 36 36 36 36 36 36 36 36 36 35 36 36 35 36 36 36 37 38 37 37 37 37 36 36 36 35 36 36 36 37 37 35 32 31 33 35 38 39 39 40 42 42 43 42 42 42 42 42 44 46 46 47 46 41 37 36 36 36 38 40 43 44 45 46 47 49 50 52 54 55
38 38 40 42 41 39 39 40 40 40 40 39 38 37 37 37 37 37 38 38 38 38 38 38 38 38 39 39 39 39 39 39 39 39 40 40 40 40 40 40 39 39 39 38 37 37 37 38 39 38 35 32 32 35 37 38 39 40 41 42 43 44 44 45 45 45 46 47 48 49 49 44 40 39 39 40 42 44 45 46 47 48 49 50 52 53 54 55
40 39 40 42 43 42 41 41 42 42 41 41 41 40 40 40 39 39 39 40 40 39 39 39 39 40 40 41 41 42 43 43 42 42 42 42 42 42 42 42 41 41 41 41 41 40 39 39 40 40 38 35 34 34 36 37 39 39 40 41 42 43 44 45 47 47 48 48 48 50 51 48 43 41 42 43 44 46 47 48 49 51 51 52 53 54 55 56
42 41 41 43 44 44 43 42 43 43 44 43 43 42 42 42 42 42 42 42 42 41 41 40 40 41 41 42 43 44 45 45 45 44 44 44 44 43 43 43 43 44 43 43 43 42 41 41 42 41 40 38 37 36 36 37 38 40 41 42 42 43 44 45 46 47 49 49 48 50 52 50 45 44 45 46 47 49 50 51 52 53 54 54 55 56 57 57
45 44 43 43 45 45 45 45 44 44 44 45 44 44 43 44 44 44 44 43 44 43 43 42 42 42 42 43 44 44 45 46 46 46 46 46 45 45 44 44 44 45 45 45 45 44 43 43 43 43 43 42 40 39 38 38 39 40 41 42 43 44 45 45 46 48 50 48 47 50 53 49 46 47 48 49 50 51 52 54 54 55 56 56 56 57 58 58
47 46 44 44 46 47 47 47 47 45 45 45 45 44 44 45 46 46 45 45 45 45 45 44 43 44 44 44 44 45 45 45 46 48 48 47 46 44 44 45 45 45 46 46 46 46 46 45 45 45 45 45 43 40 40 41 41 41 41 42 43 45 46 47 47 49 50 47 48 52 52 50 48 49 50 50 52 53 54 56 56 57 57 57 57 58 59 59
49 48 46 44 45 46 47 48 48 48 48 47 46 46 46 46 47 48 48 46 46 45 45 45 44 45 45 45 45 45 46 46 47 48 49 48 46 44 44 45 45 46 46 47 47 47 48 48 47 47 47 47 44 43 43 43 42 42 41 42 43 46 47 48 49 49 48 49 51 52 51 52 51 50 50 52 53 54 56 57 58 58 58 58 58 59 60 61
51 51 49 47 45 45 46 47 48 49 49 49 49 48 48 47 48 48 49 48 48 47 47 47 47 47 47 46 46 47 47 48 49 48 48 47 47 46 45 45 45 46 46 46 47 48 49 49 48 47 47 46 45 44 45 45 45 44 43 43 44 45 47 48 49 48 47 51 54 51 50 54 54 50 50 53 54 56 57 58 58 58 58 59 59 61 63 64
54 53 53 51 49 46 45 46 47 48 49 50 51 50 50 49 48 48 49 50 50 50 51 50 49 49 49 49 49 49 49 49 49 48 48 47 47 47 46 45 45 45 45 46 46 47 49 49 48 48 48 46 45 45 46 46 47 46 47 46 46 48 48 48 48 47 48 52 54 51 51 55 54 51 51 54 55 57 57 58 58 58 58 59 61 63 65 66
57 56 55 55 54 52 49 47 47 47 47 49 51 51 51 50 48 48 49 51 51 52 54 54 53 53 53 53 53 52 51 50 50 49 49 49 48 48 48 47 46 46 46 47 47 48 49 50 49 49 49 47 46 47 48 48 49 50 49 50 51 52 51 49 49 48 49 52 52 51 53 55 53 52 53 55 56 57 57 58 58 58 59 61 64 65 66 67
59 59 58 57 56 55 54 52 50 49 48 48 49 50 51 50 50 49 50 50 52 53 54 56 56 56 56 56 56 55 54 53 53 51 52 52 51 50 50 50 49 49 49 48 49 50 50 51 51 51 52 50 49 50 51 52 53 53 53 53 54 54 53 52 52 50 50 52 52 52 55 55 52 52 54 55 56 56 57 58 59 60 62 64 65 66 66 67
61 61 61 61 60 58 57 55 54 54 52 50 49 49 50 50 51 51 51 50 50 52 53 55 57 58 59 59 59 58 58 57 56 55 55 55 54 53 54 53 52 53 52 51 52 52 53 53 53 53 55 53 52 54 55 55 57 57 56 55 55 54 54 54 53 51 51 53 54 55 57 55 54 54 54 54 54 55 57 58 60 62 64 64 65 66 66 67
63 63 63 65 64 62 60 58 57 57 56 55 54 52 52 51 51 52 52 50 49 50 52 54 56 58 58 59 60 61 61 60 59 58 58 58 57 56 56 56 56 56 56 55 56 56 55 55 55 56 58 56 55 57 58 58 61 59 55 53 53 54 54 53 52 52 52 54 56 57 57 55 55 54 54 54 55 57 58 60 62 63 63 64 65 65 66 67
Wind_Direction
338 329 305 249 190 179 179 173 172 170 168 171 168 148 133 131 117 111 115 123 133 136 139 150 150 144 132 123 132 136 134 130 133 128 122 144 222 260 281 334 349 17 40 44 38 40 38 39 38 36 40 37 30 18 14 19 16 13 10 11 17 19 31 50 59 56 46 38 32 33 38 31 37 54 57 58 51 53 67 73 80 85 83 78 69 61 60 55
354 344 322 233 174 169 172 169 171 172 170 174 172 155 137 136 130 116 121 130 124 127 126 137 148 152 118 89 98 116 111 115 122 130 138 155 185 277 298 319 328 345 7 34 43 44 37 37 40 41 45 38 30 22 15 21 17 11 17 18 16 19 32 44 54 55 46 38 33 33 38 25 43 58 61 65 55 63 83 91 97 96 91 85 77 65 54 48
12 5 8 130 148 155 161 163 170 171 168 171 174 164 148 144 142 121 125 134 107 103 113 133 147 124 124 59 10 36 41 78 100 124 144 160 159 249 299 315 320 330 339 352 17 37 34 34 42 54 57 40 27 25 20 23 21 13 17 14 14 24 29 33 40 45 40 33 30 38 42 31 46 54 62 69 60 77 96 102 101 94 85 79 71 62 48 42
31 34 54 103 128 138 146 156 164 162 161 164 169 168 149 144 146 132 136 162 118 83 88 103 41 1 10 1 317 350 357 7 44 118 143 165 169 189 261 300 306 318 324 329 353 25 36 32 34 56 63 47 30 24 20 20 19 12 12 17 24 29 29 32 38 44 43 38 43 52 49 47 52 49 57 74 70 74 88 93 90 87 80 75 67 60 49 41
44 52 66 89 108 118 130 143 150 149 148 153 160 159 144 141 142 143 155 180 147 104 101 97 85 48 30 26 345 326 330 328 328 318 140 180 194 199 222 268 292 303 309 315 335 4 27 29 3 359 15 33 32 22 17 11 8 5 9 28 39 43 43 45 47 50 51 50 55 58 56 59 61 55 58 72 74 67 72 79 82 85 84 80 69 59 46 38
49 59 68 79 91 103 114 127 136 132 134 143 150 150 137 133 139 149 157 166 142 113 103 91 83 75 59 54 49 19 301 291 294 302 295 222 212 211 224 249 272 284 290 298 308 313 315 330 347 349 355 15 24 13 10 3 353 350 19 57 60 60 55 55 53 51 56 60 59 55 56 63 61 61 66 69 69 61 63 74 83 89 87 81 68 52 39 33
52 58 69 77 86 96 104 114 119 116 124 136 145 142 131 131 140 145 144 143 127 103 92 84 79 79 75 70 71 82 109 273 280 326 318 258 233 222 223 235 249 263 268 271 276 285 299 309 330 343 342 2 12 357 0 1 344 321 65 95 74 51 40 47 50 47 57 66 65 51 46 55 54 59 64 65 67 64 65 71 81 94 89 74 60 46 36 30
56 58 66 75 84 94 102 107 109 110 120 130 135 132 128 130 133 132 130 127 112 93 87 83 81 84 83 79 77 77 86 57 350 12 10 347 265 235 228 233 240 251 258 266 280 297 308 311 316 325 319 329 356 357 358 356 336 305 274 272 338 7 25 33 41 39 55 70 71 60 34 35 48 54 54 55 67 71 83 81 49 80 88 71 52 40 33 26
58 61 66 76 85 97 110 111 111 116 122 124 127 127 127 126 124 123 122 118 107 94 90 88 86 82 80 80 75 64 76 77 57 26 357 357 333 274 249 248 250 257 262 268 283 292 296 298 302 311 311 317 339 354 358 350 333 318 308 306 306 324 8 6 11 5 32 70 60 51 18 0 33 46 49 53 61 56 64 76 44 30 77 75 52 33 23 17
56 61 68 76 86 103 116 116 117 123 124 126 129 130 128 127 125 126 124 121 117 110 103 103 106 75 59 54 64 16 272 88 68 44 4 0 6 356 297 262 261 263 265 268 271 275 282 290 297 305 308 316 337 349 351 335 320 316 311 310 302 312 342 318 311 326 345 38 28 351 320 311 337 345 347 30 44 32 12 16 19 4 9 47 49 20 5 354
55 60 69 77 91 107 117 120 124 127 126 131 135 135 135 136 136 135 133 130 125 119 110 126 188 126 12 306 295 279 285 316 324 321 346 344 355 2 336 278 268 266 269 272 274 280 285 291 298 302 304 314 332 341 339 311 299 301 293 295 295 301 325 309 289 306 327 344 317 312 302 295 293 287 300 0 14 20 359 344 340 342 351 354 342 336 332 310
53 60 71 83 96 110 121 125 128 132 132 135 140 143 146 147 147 143 139 134 131 134 178 265 254 226 238 281 281 279 286 289 285 279 281 281 290 309 291 280 282 277 278 280 280 286 287 289 294 296 298 306 319 328 327 291 282 284 276 280 290 294 301 303 300 302 310 298 279 294 292 289 288 265 249 257 298 334 335 326 325 322 326 327 306 289 287 287
48 60 73 89 105 117 128 133 136 139 141 144 148 154 157 158 158 156 151 154 180 234 263 275 278 273 246 266 281 286 281 278 276 270 271 277 283 288 281 281 286 281 279 280 278 281 285 287 286 287 288 288 298 307 295 271 269 273 275 277 287 296 295 294 298 300 296 278 266 280 285 279 268 250 233 222 231 275 304 315 318 308 302 294 278 270 276 288
30 59 80 96 119 133 140 145 147 148 151 156 160 163 169 176 179 182 195 229 268 269 269 277 287 289 272 262 271 277 280 280 279 275 278 285 288 288 284 283 285 281 277 276 274 277 283 286 285 286 287 287 289 280 264 260 260 262 271 273 277 287 290 288 290 294 294 282 269 271 271 265 261 258 249 242 233 237 277 303 308 297 285 276 272 276 286 297
348 37 109 130 153 164 162 162 163 164 165 169 177 187 194 201 207 215 228 256 284 284 278 277 285 290 281 277 277 276 280 280 279 280 282 286 288 287 285 282 282 282 280 279 278 281 285 290 295 298 301 298 289 272 263 260 259 259 263 265 262 269 278 282 282 285 286 281 273 268 263 261 268 280 281 268 253 242 248 272 282 269 260 267 273 280 295 307
317 293 210 204 202 202 195 187 187 187 187 191 202 215 218 219 223 232 242 259 281 288 284 279 278 281 278 282 282 276 278 281 281 285 286 289 290 287 283 280 281 283 285 288 286 285 288 298 307 309 310 305 294 284 276 267 263 264 264 266 268 266 273 280 280 280 279 276 269 258 256 261 269 276 276 273 268 261 263 274 275 245 238 261 279 286 292 304
303 284 244 229 225 222 219 214 212 212 213 216 222 228 230 233 238 246 251 258 274 280 280 280 278 277 276 279 282 282 285 287 285 285 285 288 291 288 285 284 286 289 292 292 289 290 300 315 321 320 318 314 310 304 296 286 280 278 272 270 275 275 276 280 278 275 273 268 262 256 258 265 267 268 270 275 276 275 279 288 298 291 261 259 277 291 292 292
287 279 258 239 236 233 231 231 230 229 231 232 234 235 239 244 249 257 258 258 266 270 271 276 277 282 285 282 289 293 291 292 291 289 286 284 285 283 281 282 286 289 290 288 291 305 319 330 337 333 329 322 318 314 303 298 294 290 286 281 277 275 276 277 272 266 258 248 245 249 258 265 268 272 278 282 285 290 297 301 310 320 305 279 274 282 288 290
277 270 261 247 241 240 239 239 239 238 239 242 244 245 247 252 256 260 259 257 261 263 265 268 271 280 287 287 296 300 295 294 290 288 288 279 279 285 286 287 292 296 294 292 302 318 325 342 355 346 340 332 323 320 308 301 294 287 288 286 281 277 277 277 267 249 240 243 246 250 257 265 273 282 290 292 295 301 310 315 322 329 314 292 292 290 289 293
287 263 257 250 243 243 242 242 244 244 245 249 253 254 253 255 258 257 254 255 259 261 264 265 269 277 286 293 303 305 300 299 291 291 305 263 272 286 293 298 311 322 315 313 317 314 325 1 16 1 349 337 329 322 304 295 286 275 273 277 276 270 268 273 265 244 240 251 261 268 271 275 280 286 292 295 300 305 309 314 321 327 309 279 278 285 289 291
309 271 255 249 244 243 244 242 244 247 249 253 255 254 252 251 254 254 251 252 255 259 264 266 269 275 283 296 305 305 301 302 300 306 332 338 314 310 306 315 340 350 339 334 322 301 327 38 46 24 359 337 330 319 298 290 286 279 274 271 266 251 247 260 264 256 257 261 267 278 285 285 285 289 294 296 300 302 303 306 311 312 300 279 269 270 275 278
318 294 263 250 245 242 244 244 242 244 247 251 251 249 246 245 250 254 252 252 253 255 261 265 268 275 288 301 307 306 302 299 299 312 333 359 19 16 351 354 19 14 345 333 305 301 358 59 63 49 23 352 330 315 302 297 297 300 298 281 265 245 243 264 277 276 275 276 276 281 286 289 291 292 294 298 299 299 301 303 301 293 284 279 276 275 273 274
316 308 287 261 249 243 243 246 245 244 245 247 248 247 247 246 250 255 255 253 253 253 256 262 268 277 292 300 299 293 282 274 287 301 308 331 2 4 359 1 16 15 339 311 307 332 11 39 47 48 40 23 340 309 299 296 300 306 297 278 271 268 265 276 284 284 283 283 286 289 289 292 298 297 295 299 300 297 297 295 291 283 276 274 274 275 277 279
310 307 304 285 262 249 244 245 248 249 248 248 249 249 251 250 251 255 255 254 253 254 255 257 263 270 273 277 279 272 263 266 277 285 286 289 300 323 331 334 341 333 314 300 302 330 352 8 15 18 20 21 358 322 294 287 291 287 270 266 270 276 282 278 271 275 282 288 293 295 294 295 299 298 295 296 294 288 285 282 279 276 274 273 274 277 281 283
307 303 305 301 284 263 251 246 248 250 251 251 252 252 253 253 253 252 253 255 255 256 256 254 259 261 252 256 267 267 264 264 266 269 278 282 277 280 290 293 294 287 286 285 288 303 316 330 341 338 339 349 344 319 283 266 269 266 260 265 270 275 288 289 269 263 272 286 295 296 296 297 298 295 294 294 291 285 280 278 277 276 276 276 278 282 284 285
301 300 301 302 297 282 263 252 248 249 251 253 253 254 254 254 255 253 253 255 257 259 260 259 260 259 251 250 256 261 264 263 260 259 258 262 267 267 266 266 263 259 260 264 272 281 292 312 314 301 296 290 277 261 255 254 256 260 260 266 275 282 290 293 288 274 269 278 290 295 297 298 297 296 296 294 292 288 284 280 279 278 280 281 281 282 284 285
297 296 295 297 298 294 277 261 253 250 251 253 253 253 253 253 255 256 256 259 262 263 263 263 261 259 256 252 251 256 261 260 259 259 252 250 257 261 261 261 260 260 258 259 264 277 289 294 275 269 269 273 271 261 257 260 265 272 275 278 283 287 291 292 290 287 283 281 285 292 295 295 295 296 296 294 293 291 287 283 282 280 280 280 280 281 284 286
293 293 290 289 292 293 288 273 261 254 251 252 253 254 253 253 254 255 257 260 264 265 265 265 261 259 259 258 257 260 261 258 256 256 254 254 258 261 265 266 268 271 269 268 268 273 283 285 273 265 261 268 276 276 273 272 274 280 283 286 290 292 294 293 290 288 288 285 285 288 289 289 290 293 294 293 293 291 286 284 285 284 282 280 281 284 286 288
290 290 288 285 283 286 287 283 272 262 257 254 253 254 254 254 254 254 256 258 262 264 266 266 262 261 261 260 261 263 263 261 257 254 254 259 262 263 266 267 270 274 272 271 274 272 277 283 284 282 278 277 277 279 280 274 273 276 280 285 292 295 294 291 290 288 286 286 288 288 287 286 287 290 293 295 294 290 287 287 289 290 287 285 285 287 288 289
289 288 287 285 280 279 282 284 283 274 267 261 256 255 255 256 256 255 256 258 260 263 265 265 265 263 262 261 261 261 261 261 260 259 258 261 262 264 268 267 266 269 270 273 277 277 277 279 283 284 284 286 283 282 282 277 273 273 274 280 286 291 292 288 287 287 287 289 290 288 288 287 288 292 296 296 295 291 289 290 292 292 290 289 289 289 290 290
289 288 287 286 282 280 279 279 282 281 277 271 265 261 259 258 258 258 259 259 261 262 264 265 265 265 265 266 265 263 261 260 260 262 263 263 264 266 269 269 269 268 268 272 276 278 278 277 278 280 282 285 285 285 285 281 280 280 279 281 280 282 286 284 284 286 288 290 289 288 290 290 292 297 298 296 295 293 291 291 291 291 290 290 290 291 291 291
288 287 287 286 284 282 281 278 277 278 279 277 273 270 267 263 262 264 264 262 261 261 262 264 264 264 265 265 264 263 263 264 265 266 265 264 264 265 267 270 272 272 271 273 276 278 280 278 276 277 279 282 283 285 286 285 285 285 283 281 276 273 273 274 280 283 284 286 287 287 289 290 293 297 298 297 296 293 291 290 289 290 290 290 291 291 291 291
287 286 285 285 284 282 281 280 279 277 276 277 276 275 273 271 271 269 265 263 262 262 261 263 264 264 264 263 262 262 265 268 269 269 268 267 266 265 265 267 271 273 274 275 277 280 282 283 282 279 278 280 281 284 286 286 288 289 289 286 284 281 278 277 279 280 281 283 284 286 286 287 291 295 295 295 294 292 291 290 289 289 289 289 290 290 290 290
286 285 284 284 282 281 280 280 280 279 278 276 276 276 275 275 274 270 267 266 266 265 263 263 265 266 266 265 264 264 265 267 267 267 267 267 268 267 267 268 271 273 274 275 278 279 281 284 286 284 282 281 282 283 284 283 284 287 289 288 287 285 284 284 282 279 278 277 279 283 285 288 291 291 290 291 290 290 290 290 289 289 289 289 289 289 289 289
286 285 284 283 281 281 280 279 278 278 278 277 276 276 276 275 274 271 269 269 270 270 268 267 266 268 269 268 267 266 267 267 267 266 266 266 266 267 268 269 270 272 273 275 277 278 278 280 281 283 284 284 284 284 285 283 281 283 284 284 284 284 285 285 285 283 280 278 275 275 278 284 288 288 288 288 287 288 288 287 286 286 287 287 288 288 287 287
285 284 283 282 280 279 279 279 278 276 276 277 277 277 276 275 274 272 270 270 271 272 272 271 269 269 270 271 270 269 269 269 268 267 267 266 265 266 267 269 270 270 271 273 274 276 277 277 276 278 280 282 284 284 284 284 283 283 283 283 282 283 284 285 286 285 283 282 280 275 273 276 279 283 286 286 285 285 284 283 283 284 285 285 285 285 285 285
283 283 282 281 280 279 278 277 277 277 276 275 275 276 276 275 274 273 271 270 270 270 271 271 271 270 270 271 272 272 271 271 271 271 270 270 269 268 268 268 269 270 270 271 272 274 276 276 275 276 278 279 281 281 282 282 282 283 283 283 282 282 284 285 286 286 285 285 284 282 279 277 277 280 282 281 281 281 280 281 282 282 283 283 283 284 284 285
279 281 281 281 281 280 279 278 277 276 275 274 274 274 275 275 275 274 273 271 269 268 269 269 270 270 270 270 271 272 272 271 271 272 272 272 272 272 270 269 269 269 269 270 271 272 274 274 273 274 275 277 278 280 281 282 282 283 282 282 282 283 284 285 286 287 287 287 286 285 284 283 283 284 282 281 281 281 281 281 282 283 283 284 284 285 285 286
276 278 279 279 280 279 279 278 278 277 275 274 273 273 273 273 274 273 273 272 270 269 268 268 268 269 269 269 270 270 271 271 271 271 271 271 271 272 272 271 270 269 269 270 270 271 272 273 273 272 271 272 274 277 279 281 282 284 284 284 284 284 284 285 285 286 286 286 286 286 286 286 288 287 286 286 286 285 284 283 284 284 285 286 286 287 287 288
275 276 277 276 278 279 278 278 278 277 277 276 275 274 273 272 272 272 272 271 270 269 268 267 267 267 267 267 267 268 267 267 268 269 269 270 270 271 271 271 271 271 270 270 270 271 272 273 275 274 272 271 271 272 274 277 278 280 283 284 285 285 284 284 283 284 284 284 285 285 285 287 289 289 290 291 289 287 285 285 286 286 287 287 287 287 288 289
274 275 275 275 276 277 277 277 277 277 277 277 276 275 274 273 272 272 271 271 270 270 269 268 267 267 267 267 266 266 265 265 266 267 268 269 270 271 271 272 272 272 272 272 271 271 272 273 274 274 274 271 270 270 271 273 274 276 277 279 281 283 283 283 283 283 283 283 284 285 285 287 289 291 293 293 290 288 288 288 288 288 288 288 289 289 291 292
274 274 275 274 275 276 276 277 277 277 277 276 276 276 275 274 273 272 271 271 271 270 270 269 269 268 268 268 268 267 267 266 266 266 268 269 270 271 272 273 274 274 274 275 274 274 274 274 275 275 275 273 271 271 271 272 274 274 274 275 276 278 279 280 281 281 282 282 283 285 286 288 290 292 292 290 289 289 289 289 289 289 290 290 291 292 293 294
275 276 276 274 274 275 275 275 276 276 277 277 276 276 276 275 274 273 272 271 271 271 270 270 269 268 268 268 268 268 268 269 269 268 268 269 269 270 271 272 274 274 275 276 276 277 277 277 277 277 278 277 275 274 273 273 273 273 273 274 274 274 275 275 276 278 278 279 281 283 285 288 291 291 289 289 289 289 288 288 289 290 290 291 292 293 294 294
277 277 277 276 275 275 276 275 275 275 275 277 277 277 277 276 275 274 273 273 272 272 271 270 269 269 268 267 267 268 269 270 271 270 270 269 269 270 270 271 272 273 275 276 276 277 277 277 278 279 278 277 277 277 276 274 273 273 273 273 273 273 272 272 274 274 274 277 280 280 282 287 289 288 288 288 288 288 288 288 288 289 291 292 293 294 294 293
277 277 278 278 276 275 276 276 276 275 274 275 275 276 276 276 276 275 274 274 274 273 273 272 271 270 269 268 268 268 268 269 269 269 269 269 270 271 272 272 273 274 275 276 277 277 277 278 278 279 279 278 278 278 276 275 274 274 274 274 274 274 273 274 273 273 275 279 279 279 283 287 287 287 288 288 288 288 288 288 289 291 292 293 293 293 293 292
278 277 278 279 278 276 276 276 276 276 275 275 274 274 274 274 275 275 275 275 274 274 274 274 273 272 271 270 269 268 268 267 267 267 268 270 271 271 272 273 274 274 275 276 277 277 278 278 279 278 278 279 280 279 278 278 277 276 275 274 274 275 276 276 276 277 281 282 281 284 288 288 288 289 290 289 289 288 288 289 291 292 293 293 293 293 293 292
279 279 278 279 280 278 277 277 276 276 276 275 274 273 273 273 273 273 274 275 275 274 274 274 273 272 272 271 270 269 268 268 268 268 269 271 272 272 272 273 273 274 275 276 277 277 277 277 277 278 278 279 280 280 280 280 280 279 278 277 277 276 277 278 279 282 283 282 284 288 288 287 288 289 289 288 288 287 288 289 290 291 292 292 292 292 292 291
282 281 280 279 280 280 279 279 278 277 277 276 274 274 273 272 272 271 272 273 274 274 273 272 272 272 271 271 270 269 268 269 269 270 271 271 272 272 272 272 273 274 275 275 275 275 275 276 277 278 278 279 280 280 280 280 281 281 281 282 281 279 279 280 282 283 281 280 285 288 286 286 289 289 287 287 286 287 288 289 289 290 290 290 290 290 290 289
285 284 283 282 281 282 282 281 280 278 278 278 276 275 275 274 272 271 270 270 270 271 272 272 272 271 271 271 270 270 270 270 270 270 271 271 271 271 271 271 272 272 272 272 273 273 274 276 276 277 277 278 279 279 279 280 280 280 282 283 282 282 283 284 284 282 281 281 285 286 284 286 289 288 286 286 287 288 289 289 289 288 288 288 288 289 289 288
287 286 285 284 283 283 284 285 284 282 280 279 278 277 277 276 275 272 271 270 269 269 269 271 271 271 271 271 271 271 271 271 270 270 271 270 270 271 271 270 271 271 270 271 271 272 273 274 274 276 277 277 278 278 278 279 279 280 281 282 283 285 286 286 285 285 284 285 286 285 285 287 288 286 286 287 288 289 288 288 288 287 287 288 288 288 288 288
289 288 287 285 284 284 285 286 287 285 283 282 282 280 278 278 277 275 274 272 271 270 268 269 269 270 270 271 271 271 271 271 270 270 270 270 270 270 270 270 270 270 270 270 271 271 272 273 275 276 276 276 277 277 277 278 277 278 279 282 284 286 286 285 285 286 286 286 285 285 286 287 287 286 288 289 290 289 288 288 288 287 288 288 288 288 289 290
290 289 289 287 285 285 286 286 286 286 286 285 285 283 281 280 279 279 277 275 274 273 271 270 269 269 269 270 270 270 270 270 270 269 269 269 269 269 269 270 270 270 271 271 272 272 272 273 274 275 275 276 276 276 276 276 276 278 281 283 284 283 282 283 283 284 283 283 284 285 286 287 288 289 291 291 290 290 289 288 288 288 288 289 290 291 292 294
Height
5848 5848 5848 5848 5848 5849 5849 5849 5850 5850 5850 5850 5850 5851 5851 5851 5851 5851 5851 5852 5852 5852 5852 5852 5852 5852 5852 5852 5852 5852 5851 5851 5851 5851 5851 5851 5850 5850 5849 5849 5849 5848 5848 5847 5847 5846 5846 5845 5845 5845 5845 5845 5845 5845 5845 5844 5844 5844 5844 5844 5843 5843 5842 5840 5839 5838 5837 5837 5836 5836 5835 5834 5834 5834 5834 5835 5835 5835 5835 5835 5834 5834 5834 5834 5834 5834 5833 5833
5848 5848 5847 5848 5848 5849 5849 5849 5850 5850 5850 5851 5851 5851 5851 5851 5852 5852 5852 5852 5852 5852 5852 5852 5852 5852 5852 5852 5852 5852 5852 5852 5851 5851 5851 5851 5850 5850 5850 5849 5849 5849 5848 5848 5848 5847 5846 5846 5846 5846 5845 5845 5845 5845 5845 5845 5844 5844 5844 5844 5843 5843 5842 5841 5839 5838 5837 5837 5837 5837 5836 5835 5835 5834 5835 5836 5836 5835 5835 5835 5835 5834 5834 5834 5834 5834 5834 5834
5848 5848 5847 5847 5848 5849 5849 5850 5850 5850 5851 5851 5851 5851 5851 5852 5852 5852 5852 5852 5852 5852 5853 5853 5853 5853 5852 5852 5852 5852 5852 5852 5852 5851 5851 5851 5851 5850 5850 5850 5850 5849 5849 5849 5848 5848 5847 5847 5846 5846 5845 5845 5845 5845 5845 5845 5844 5844 5844 5844 5844 5843 5842 5841 5840 5839 5838 5837 5837 5837 5836 5836 5835 5835 5836 5836 5836 5836 5836 5835 5835 5834 5834 5834 5834 5835 5835 5836
5849 5848 5848 5848 5848 5849 5849 5850 5850 5850 5851 5851 5851 5851 5851 5852 5852 5852 5852 5852 5852 5853 5853 5853 5853 5853 5853 5853 5852 5852 5852 5852 5852 5852 5851 5851 5851 5851 5850 5850 5850 5850 5849 5849 5849 5848 5848 5848 5847 5846 5846 5845 5845 5845 5844 5844 5844 5844 5844 5845 5845 5844 5843 5842 5841 5840 5839 5838 5837 5837 5837 5837 5836 5836 5837 5837 5837 5836 5836 5836 5835 5835 5834 5835 5835 5835 5836 5837
5849 5849 5849 5849 5849 5849 5850 5850 5850 5850 5851 5851 5851 5851 5852 5852 5852 5853 5853 5853 5853 5853 5853 5853 5853 5853 5853 5853 5853 5852 5852 5852 5852 5852 5852 5852 5851 5851 5851 5850 5850 5850 5850 5849 5849 5849 5848 5848 5847 5847 5847 5846 5846 5845 5845 5844 5844 5844 5845 5846 5846 5845 5844 5843 5841 5840 5839 5839 5838 5838 5838 5838 5838 5837 5837 5837 5837 5837 5837 5836 5835 5835 5835 5835 5835 5836 5836 5837
5850 5850 5850 5850 5850 5850 5850 5850 5850 5851 5851 5851 5851 5851 5852 5852 5852 5853 5853 5853 5853 5853 5853 5853 5853 5853 5853 5853 5853 5853 5852 5852 5852 5852 5852 5852 5852 5851 5851 5851 5850 5850 5850 5850 5849 5849 5848 5848 5847 5848 5847 5847 5846 5846 5845 5845 5844 5845 5846 5847 5846 5845 5844 5843 5841 5840 5840 5839 5839 5839 5839 5839 5839 5839 5838 5838 5838 5838 5838 5837 5836 5836 5835 5835 5835 5836 5837 5837
5850 5850 5850 5850 5850 5850 5851 5851 5851 5851 5851 5851 5851 5852 5852 5852 5852 5853 5853 5853 5853 5853 5853 5853 5853 5853 5853 5853 5853 5853 5852 5852 5852 5852 5852 5852 5852 5852 5851 5851 5851 5850 5850 5850 5849 5849 5848 5848 5848 5848 5848 5848 5847 5847 5846 5846 5846 5846 5847 5847 5845 5844 5843 5842 5841 5840 5840 5840 5840 5840 5839 5839 5840 5840 5839 5839 5839 5838 5838 5838 5837 5837 5836 5836 5836 5836 5837 5838
5851 5851 5851 5851 5851 5851 5851 5851 5851 5851 5851 5851 5852 5852 5852 5852 5853 5853 5853 5853 5853 5853 5853 5853 5854 5853 5853 5853 5853 5853 5852 5852 5852 5852 5852 5852 5852 5852 5851 5851 5851 5850 5850 5850 5850 5849 5849 5849 5848 5848 5848 5849 5848 5848 5847 5847 5847 5847 5847 5847 5845 5844 5844 5842 5841 5841 5840 5840 5840 5840 5840 5840 5840 5840 5839 5839 5838 5838 5838 5838 5838 5837 5836 5836 5836 5836 5837 5838
5851 5851 5851 5851 5851 5851 5851 5851 5851 5852 5852 5852 5852 5852 5852 5853 5853 5853 5853 5854 5854 5854 5854 5854 5853 5853 5853 5853 5853 5853 5852 5852 5852 5852 5852 5852 5852 5852 5851 5851 5851 5851 5850 5850 5850 5850 5849 5849 5849 5848 5848 5848 5848 5847 5847 5848 5848 5847 5847 5846 5844 5844 5844 5843 5842 5841 5841 5840 5840 5840 5840 5840 5840 5839 5839 5839 5838 5838 5838 5837 5837 5837 5836 5836 5836 5836 5836 5837
5852 5852 5851 5851 5851 5851 5851 5852 5852 5852 5852 5852 5852 5853 5853 5853 5853 5853 5853 5853 5854 5854 5854 5854 5853 5853 5853 5853 5853 5852 5852 5852 5852 5852 5852 5852 5851 5851 5851 5851 5851 5850 5850 5850 5850 5850 5849 5849 5849 5849 5848 5848 5847 5847 5847 5848 5848 5847 5847 5845 5843 5844 5844 5844 5843 5842 5842 5841 5840 5840 5840 5841 5840 5839 5839 5838 5838 5838 5838 5837 5837 5836 5836 5836 5835 5835 5835 5835
5852 5852 5852 5852 5852 5852 5852 5852 5852 5852 5852 5853 5853 5853 5853 5853 5853 5853 5853 5853 5854 5854 5854 5853 5853 5853 5853 5853 5853 5852 5852 5852 5852 5852 5852 5852 5851 5851 5851 5850 5850 5850 5850 5850 5850 5850 5849 5849 5849 5849 5848 5848 5847 5846 5847 5847 5847 5847 5847 5845 5843 5843 5844 5844 5843 5843 5843 5842 5841 5841 5841 5841 5840 5839 5838 5838 5837 5837 5837 5837 5837 5836 5836 5836 5835 5834 5833 5833
5852 5852 5852 5852 5852 5852 5852 5852 5853 5853 5853 5853 5854 5854 5854 5854 5854 5853 5853 5853 5853 5853 5853 5853 5853 5853 5853 5853 5852 5852 5852 5852 5852 5851 5851 5851 5851 5851 5850 5850 5850 5849 5849 5849 5849 5849 5849 5849 5848 5848 5848 5847 5847 5846 5846 5847 5847 5846 5846 5845 5843 5843 5843 5843 5843 5843 5843 5842 5840 5840 5841 5842 5841 5839 5838 5837 5837 5837 5836 5836 5836 5836 5835 5835 5834 5834 5833 5832
5853 5852 5852 5852 5852 5852 5853 5853 5853 5853 5854 5854 5854 5854 5854 5854 5854 5854 5854 5854 5853 5853 5853 5853 5853 5853 5853 5853 5852 5852 5852 5852 5852 5851 5851 5851 5851 5850 5850 5850 5849 5849 5849 5849 5849 5848 5848 5848 5848 5848 5847 5847 5847 5846 5846 5846 5846 5845 5844 5844 5843 5842 5842 5842 5842 5842 5843 5842 5840 5840 5841 5842 5840 5838 5837 5836 5836 5836 5835 5835 5835 5835 5835 5834 5834 5833 5833 5832
5853 5853 5853 5853 5853 5853 5853 5853 5853 5854 5854 5854 5854 5854 5854 5854 5854 5854 5854 5854 5853 5853 5853 5853 5853 5853 5853 5853 5852 5852 5852 5852 5851 5851 5851 5851 5850 5850 5850 5849 5849 5849 5849 5848 5848 5848 5847 5847 5847 5846 5846 5846 5846 5845 5845 5845 5845 5844 5843 5843 5842 5841 5840 5840 5840 5841 5842 5841 5840 5840 5840 5839 5838 5836 5836 5835 5834 5834 5834 5834 5834 5834 5834 5834 5833 5833 5833 5832
5853 5853 5853 5853 5853 5853 5853 5853 5854 5854 5854 5854 5855 5855 5854 5854 5854 5854 5854 5854 5853 5853 5853 5853 5852 5852 5852 5852 5852 5852 5852 5851 5851 5851 5850 5850 5850 5850 5849 5849 5848 5848 5848 5848 5848 5847 5847 5846 5846 5845 5845 5844 5844 5844 5844 5844 5844 5843 5843 5843 5842 5841 5840 5840 5840 5840 5841 5841 5840 5839 5838 5837 5836 5835 5836 5835 5834 5833 5833 5834 5834 5834 5834 5834 5833 5833 5832 5832
5853 5853 5853 5853 5853 5853 5853 5853 5854 5854 5854 5854 5854 5855 5854 5854 5854 5854 5854 5853 5853 5853 5852 5852 5852 5852 5852 5852 5851 5851 5851 5851 5851 5850 5850 5849 5849 5849 5849 5849 5848 5848 5847 5847 5847 5847 5846 5846 5845 5845 5844 5843 5842 5842 5843 5843 5842 5842 5843 5842 5841 5841 5840 5839 5839 5839 5839 5839 5838 5838 5837 5836 5835 5834 5834 5834 5833 5832 5832 5832 5833 5833 5833 5833 5832 5832 5831 5831
5853 5852 5852 5853 5853 5853 5853 5853 5853 5854 5854 5854 5854 5854 5854 5854 5854 5854 5853 5853 5853 5853 5852 5852 5852 5851 5851 5851 5851 5851 5851 5851 5850 5850 5849 5849 5848 5848 5848 5848 5848 5847 5846 5846 5846 5846 5845 5845 5844 5843 5843 5842 5841 5842 5842 5842 5842 5842 5842 5842 5841 5840 5839 5838 5838 5838 5837 5836 5835 5835 5835 5834 5834 5833 5832 5832 5832 5832 5831 5831 5832 5832 5832 5832 5831 5830 5830 5830
5853 5852 5852 5852 5852 5852 5852 5853 5853 5853 5853 5853 5854 5854 5854 5854 5853 5853 5853 5853 5852 5852 5852 5852 5851 5851 5851 5851 5850 5850 5850 5850 5849 5849 5849 5848 5848 5847 5847 5847 5847 5846 5846 5846 5845 5844 5844 5843 5843 5842 5841 5841 5841 5842 5842 5841 5841 5841 5841 5840 5840 5839 5838 5837 5837 5836 5835 5833 5833 5833 5833 5832 5831 5831 5831 5831 5831 5831 5831 5830 5831 5831 5831 5831 5830 5829 5829 5829
5853 5852 5852 5852 5852 5852 5852 5852 5852 5852 5853 5853 5853 5853 5853 5853 5853 5853 5852 5852 5852 5852 5852 5851 5851 5850 5850 5850 5850 5850 5849 5849 5849 5848 5848 5848 5847 5847 5847 5846 5846 5846 5846 5845 5844 5843 5842 5842 5841 5841 5841 5840 5841 5841 5841 5840 5839 5839 5839 5839 5839 5838 5837 5836 5835 5835 5833 5832 5832 5832 5831 5831 5830 5830 5830 5830 5830 5830 5830 5830 5830 5830 5830 5830 5829 5828 5827 5827
5852 5852 5851 5851 5851 5851 5851 5852 5852 5852 5852 5852 5852 5852 5853 5853 5852 5852 5852 5852 5852 5852 5851 5851 5851 5850 5850 5849 5849 5849 5848 5848 5848 5848 5847 5847 5847 5846 5846 5845 5845 5845 5845 5844 5843 5842 5841 5841 5841 5841 5840 5840 5839 5839 5839 5838 5838 5838 5838 5838 5838 5838 5836 5834 5833 5832 5831 5831 5830 5830 5830 5829 5829 5829 5829 5829 5829 5829 5829 5829 5829 5829 5829 5829 5828 5827 5825 5825
5851 5851 5851 5851 5851 5851 5851 5851 5851 5851 5851 5851 5852 5852 5852 5852 5852 5852 5852 5851 5851 5851 5851 5850 5850 5850 5849 5849 5848 5848 5847 5847 5846 5846 5846 5846 5846 5845 5845 5845 5844 5844 5843 5843 5843 5842 5841 5840 5840 5840 5840 5839 5838 5838 5838 5838 5837 5837 5837 5837 5837 5837 5835 5833 5832 5830 5830 5830 5830 5830 5829 5828 5828 5828 5828 5828 5828 5828 5829 5828 5828 5827 5827 5828 5827 5826 5824 5823
5851 5850 5850 5850 5850 5850 5850 5850 5850 5850 5850 5851 5851 5851 5851 5851 5851 5851 5851 5851 5851 5851 5850 5850 5850 5849 5848 5848 5848 5847 5846 5846 5846 5845 5844 5844 5845 5844 5844 5844 5843 5842 5842 5842 5842 5841 5840 5839 5839 5839 5838 5838 5838 5837 5837 5837 5837 5836 5836 5836 5836 5835 5834 5833 5831 5828 5827 5828 5828 5829 5828 5827 5827 5827 5827 5827 5827 5827 5827 5827 5826 5826 5826 5826 5825 5824 5823 5822
5850 5849 5849 5849 5848 5849 5849 5849 5849 5849 5849 5850 5850 5850 5850 5850 5850 5850 5850 5850 5850 5850 5850 5849 5849 5848 5847 5847 5847 5847 5846 5846 5845 5844 5844 5844 5843 5843 5843 5842 5842 5841 5842 5842 5841 5841 5839 5838 5837 5837 5837 5837 5837 5837 5836 5836 5836 5836 5835 5835 5834 5834 5833 5832 5830 5828 5826 5826 5826 5827 5827 5826 5826 5826 5826 5827 5827 5826 5826 5825 5825 5824 5824 5824 5823 5822 5821 5820
5849 5848 5848 5847 5847 5847 5847 5847 5848 5848 5848 5848 5849 5849 5849 5849 5849 5849 5849 5849 5849 5849 5849 5849 5848 5847 5847 5847 5847 5847 5846 5845 5844 5844 5843 5843 5843 5843 5842 5842 5841 5841 5841 5841 5840 5840 5839 5838 5837 5837 5836 5836 5836 5835 5836 5836 5836 5836 5835 5835 5834 5833 5832 5832 5830 5828 5826 5826 5825 5825 5825 5825 5825 5825 5825 5826 5826 5825 5825 5824 5823 5823 5822 5822 5821 5820 5819 5818
5848 5848 5847 5847 5846 5846 5846 5846 5846 5846 5847 5847 5847 5847 5847 5848 5848 5848 5848 5848 5848 5848 5848 5848 5847 5847 5846 5846 5846 5846 5846 5845 5844 5843 5843 5843 5843 5842 5842 5841 5841 5840 5840 5840 5840 5839 5838 5838 5837 5836 5836 5835 5835 5835 5835 5835 5835 5835 5834 5834 5833 5832 5831 5831 5830 5828 5825 5824 5823 5823 5822 5822 5823 5823 5824 5824 5824 5824 5823 5822 5822 5821 5820 5819 5819 5818 5817 5816
5848 5847 5847 5846 5845 5845 5844 5844 5844 5844 5845 5845 5846 5846 5846 5846 5846 5846 5846 5847 5847 5846 5846 5846 5846 5846 5846 5846 5845 5845 5845 5844 5844 5843 5842 5842 5842 5841 5841 5841 5841 5840 5840 5840 5839 5838 5838 5837 5836 5836 5836 5835 5835 5834 5834 5833 5833 5833 5833 5832 5831 5831 5830 5829 5829 5827 5825 5823 5821 5820 5819 5819 5820 5821 5822 5823 5822 5822 5821 5820 5819 5819 5818 5817 5816 5815 5814 5813
5847 5846 5846 5846 5845 5844 5843 5843 5842 5842 5843 5843 5844 5844 5844 5844 5844 5845 5845 5845 5845 5845 5845 5845 5845 5844 5844 5844 5844 5844 5844 5843 5843 5842 5842 5841 5841 5840 5840 5840 5840 5839 5839 5839 5838 5837 5836 5836 5836 5835 5835 5835 5834 5833 5833 5832 5831 5831 5830 5829 5829 5829 5828 5827 5826 5825 5824 5822 5820 5819 5818 5815 5815 5817 5819 5820 5820 5820 5819 5818 5817 5816 5815 5815 5814 5813 5812 5811
5845 5845 5845 5845 5844 5843 5842 5841 5841 5841 5841 5841 5841 5842 5842 5842 5843 5843 5843 5843 5843 5843 5843 5843 5843 5842 5842 5842 5843 5842 5842 5842 5842 5841 5840 5840 5840 5839 5839 5839 5838 5838 5838 5837 5836 5835 5835 5835 5834 5834 5834 5833 5833 5832 5831 5830 5829 5828 5827 5827 5826 5826 5826 5825 5824 5823 5821 5820 5819 5818 5817 5814 5813 5814 5815 5817 5817 5817 5816 5815 5814 5814 5813 5812 5811 5810 5809 5808
5844 5844 5844 5843 5843 5842 5841 5840 5840 5840 5839 5839 5840 5840 5840 5840 5840 5841 5841 5841 5841 5841 5841 5841 5841 5840 5840 5840 5841 5840 5840 5840 5840 5840 5839 5839 5838 5838 5837 5837 5837 5836 5836 5835 5834 5834 5833 5833 5832 5832 5832 5831 5831 5830 5829 5828 5828 5827 5826 5825 5824 5824 5823 5822 5821 5820 5819 5818 5817 5816 5815 5813 5811 5811 5813 5813 5814 5813 5812 5812 5811 5810 5810 5809 5808 5807 5807 5805
5842 5842 5842 5842 5841 5840 5840 5839 5839 5838 5838 5838 5838 5838 5838 5838 5838 5838 5839 5839 5839 5839 5838 5838 5838 5838 5838 5838 5839 5838 5838 5838 5838 5838 5838 5837 5836 5836 5836 5836 5835 5835 5834 5833 5832 5832 5832 5831 5830 5830 5829 5829 5829 5828 5827 5826 5826 5825 5824 5823 5823 5821 5820 5820 5819 5818 5816 5816 5815 5812 5812 5810 5808 5809 5810 5810 5810 5809 5808 5808 5807 5806 5805 5805 5804 5804 5803 5802
5839 5840 5840 5840 5839 5838 5838 5838 5838 5837 5837 5836 5836 5836 5836 5836 5836 5836 5837 5837 5836 5836 5836 5836 5836 5836 5836 5836 5836 5836 5837 5836 5836 5836 5836 5835 5834 5834 5833 5833 5833 5833 5833 5832 5831 5830 5830 5830 5829 5828 5827 5827 5826 5826 5825 5824 5823 5822 5822 5821 5821 5820 5818 5817 5816 5815 5814 5813 5812 5809 5808 5807 5806 5806 5807 5806 5806 5806 5805 5804 5803 5802 5802 5801 5801 5800 5799 5798
5837 5837 5838 5838 5837 5837 5836 5836 5836 5835 5835 5835 5834 5834 5834 5834 5834 5834 5835 5834 5834 5834 5834 5834 5833 5833 5834 5834 5834 5834 5834 5834 5834 5834 5834 5833 5832 5832 5831 5831 5830 5830 5830 5829 5829 5828 5827 5827 5827 5826 5825 5824 5824 5823 5822 5821 5820 5820 5819 5819 5819 5818 5816 5815 5813 5812 5811 5810 5808 5807 5806 5804 5803 5804 5803 5803 5803 5803 5802 5801 5800 5799 5799 5798 5797 5796 5795 5794
5834 5835 5836 5836 5835 5834 5834 5834 5834 5834 5833 5833 5832 5832 5832 5832 5833 5833 5832 5831 5831 5832 5832 5831 5831 5831 5831 5831 5832 5832 5831 5831 5831 5831 5831 5830 5830 5830 5829 5828 5828 5827 5827 5826 5826 5825 5824 5824 5824 5823 5823 5822 5821 5820 5819 5818 5817 5816 5815 5815 5814 5814 5813 5812 5811 5809 5808 5807 5806 5804 5803 5801 5802 5802 5801 5800 5800 5799 5799 5798 5797 5796 5795 5794 5793 5792 5791 5789
5831 5832 5833 5833 5833 5832 5831 5831 5831 5831 5831 5831 5830 5830 5830 5830 5831 5831 5830 5829 5829 5829 5829 5829 5828 5828 5828 5829 5829 5829 5829 5828 5828 5828 5827 5827 5827 5827 5827 5826 5825 5824 5823 5823 5823 5822 5821 5820 5820 5819 5819 5819 5818 5817 5816 5815 5814 5813 5812 5811 5810 5809 5808 5808 5807 5806 5805 5804 5803 5802 5799 5798 5799 5799 5798 5798 5796 5796 5795 5794 5793 5792 5791 5790 5789 5787 5786 5784
5828 5828 5830 5830 5830 5829 5828 5828 5828 5828 5828 5828 5828 5827 5827 5828 5828 5828 5828 5827 5826 5826 5826 5826 5826 5825 5825 5825 5826 5826 5825 5825 5825 5825 5824 5824 5824 5823 5823 5823 5822 5821 5820 5820 5819 5819 5819 5818 5817 5816 5815 5814 5814 5813 5812 5811 5811 5810 5809 5808 5806 5805 5804 5803 5802 5802 5801 5799 5800 5799 5796 5795 5795 5794 5795 5794 5793 5792 5791 5790 5788 5787 5786 5785 5784 5782 5780 5779
5824 5824 5825 5826 5826 5826 5825 5825 5825 5825 5825 5825 5824 5824 5825 5825 5825 5825 5825 5824 5824 5824 5823 5823 5823 5823 5822 5822 5822 5822 5822 5822 5822 5821 5821 5821 5821 5820 5820 5820 5819 5819 5818 5817 5816 5815 5815 5815 5815 5813 5812 5811 5809 5808 5807 5807 5806 5805 5805 5804 5803 5802 5800 5799 5797 5797 5795 5794 5795 5796 5794 5793 5792 5791 5791 5790 5788 5788 5787 5785 5784 5783 5782 5781 5779 5777 5775 5773
5821 5819 5820 5821 5822 5822 5822 5821 5821 5821 5821 5821 5821 5821 5821 5821 5821 5821 5821 5821 5821 5820 5820 5820 5819 5819 5819 5818 5818 5819 5819 5818 5818 5817 5817 5817 5817 5817 5817 5816 5816 5815 5814 5814 5813 5811 5811 5811 5811 5810 5809 5808 5806 5804 5803 5803 5802 5801 5801 5800 5799 5798 5797 5795 5793 5791 5790 5788 5788 5789 5789 5789 5789 5788 5788 5786 5785 5784 5782 5780 5779 5778 5777 5775 5773 5771 5769 5767
5818 5816 5815 5816 5818 5818 5818 5818 5817 5817 5817 5817 5817 5817 5817 5817 5817 5817 5817 5817 5817 5817 5816 5816 5815 5815 5815 5815 5815 5814 5814 5814 5814 5813 5812 5812 5812 5812 5812 5812 5812 5811 5810 5810 5809 5808 5807 5807 5807 5807 5806 5804 5802 5800 5799 5798 5797 5797 5796 5796 5795 5793 5792 5791 5789 5787 5785 5782 5781 5782 5783 5784 5785 5784 5783 5782 5781 5779 5777 5774 5773 5772 5770 5768 5766 5765 5763 5761
5816 5813 5811 5811 5813 5813 5813 5813 5813 5813 5813 5813 5813 5813 5813 5813 5813 5812 5812 5812 5812 5812 5812 5812 5811 5811 5811 5811 5810 5810 5810 5809 5809 5808 5808 5807 5807 5807 5807 5807 5807 5807 5806 5806 5804 5804 5803 5802 5802 5803 5803 5801 5799 5797 5795 5794 5793 5791 5790 5790 5790 5789 5788 5786 5785 5783 5780 5777 5775 5775 5775 5778 5780 5779 5778 5777 5776 5773 5770 5768 5767 5765 5763 5761 5759 5757 5755 5753
5812 5810 5807 5807 5809 5809 5809 5808 5808 5808 5808 5808 5809 5808 5808 5808 5808 5808 5807 5807 5807 5807 5807 5807 5807 5806 5806 5806 5805 5805 5805 5804 5804 5803 5803 5802 5802 5802 5802 5801 5801 5801 5801 5801 5800 5799 5799 5797 5797 5797 5798 5797 5796 5794 5792 5790 5789 5787 5786 5784 5783 5783 5782 5781 5780 5779 5776 5773 5771 5769 5768 5772 5775 5774 5773 5772 5769 5766 5764 5762 5760 5759 5757 5755 5752 5750 5748 5746
5807 5806 5803 5803 5804 5805 5804 5803 5803 5803 5803 5803 5803 5804 5803 5803 5803 5803 5802 5802 5802 5802 5802 5802 5802 5802 5801 5801 5800 5800 5799 5799 5799 5798 5797 5797 5797 5797 5796 5796 5796 5795 5795 5795 5795 5794 5794 5793 5792 5792 5793 5793 5791 5789 5788 5786 5785 5784 5783 5780 5779 5777 5776 5775 5774 5773 5771 5768 5766 5763 5762 5766 5770 5769 5767 5766 5762 5759 5757 5755 5754 5752 5749 5747 5745 5743 5741 5739
5802 5800 5799 5799 5799 5799 5800 5799 5798 5798 5798 5798 5798 5798 5798 5798 5798 5798 5797 5796 5796 5797 5797 5797 5797 5797 5796 5795 5795 5794 5794 5793 5794 5793 5792 5792 5792 5791 5791 5790 5790 5789 5789 5789 5788 5788 5788 5787 5786 5786 5786 5787 5786 5785 5783 5782 5781 5779 5778 5777 5775 5773 5772 5770 5768 5767 5765 5762 5761 5758 5755 5759 5763 5763 5761 5759 5756 5753 5751 5748 5746 5744 5742 5740 5738 5736 5734 5731
5795 5794 5794 5795 5794 5793 5794 5794 5794 5793 5792 5792 5793 5793 5792 5792 5792 5792 5792 5791 5791 5791 5791 5791 5792 5791 5791 5790 5789 5789 5788 5787 5788 5788 5788 5787 5787 5786 5785 5785 5784 5783 5783 5782 5782 5782 5782 5781 5780 5780 5780 5780 5780 5779 5778 5777 5776 5774 5773 5772 5770 5769 5767 5765 5763 5762 5759 5758 5758 5754 5750 5752 5757 5756 5754 5752 5749 5747 5744 5742 5740 5737 5736 5734 5732 5730 5727 5724
5789 5788 5788 5789 5788 5787 5788 5788 5789 5789 5788 5787 5787 5787 5787 5786 5786 5786 5786 5785 5785 5785 5785 5786 5786 5786 5785 5785 5784 5784 5783 5782 5782 5782 5782 5781 5781 5781 5780 5780 5779 5778 5777 5776 5776 5776 5775 5775 5774 5774 5774 5774 5774 5773 5773 5771 5770 5769 5768 5766 5765 5763 5761 5760 5759 5756 5753 5755 5755 5749 5746 5749 5751 5749 5747 5745 5742 5740 5738 5735 5733 5731 5729 5728 5726 5723 5720 5717
5782 5782 5783 5782 5782 5782 5782 5782 5782 5782 5782 5783 5783 5782 5781 5780 5780 5779 5779 5780 5779 5779 5779 5780 5780 5779 5779 5779 5779 5778 5778 5778 5776 5775 5775 5775 5776 5776 5775 5775 5774 5773 5772 5771 5770 5770 5769 5768 5768 5768 5767 5767 5768 5768 5766 5765 5764 5764 5763 5761 5759 5757 5755 5754 5753 5749 5749 5751 5749 5744 5742 5745 5745 5742 5741 5739 5735 5733 5731 5728 5726 5725 5723 5721 5719 5715 5713 5710
5774 5775 5776 5776 5776 5777 5776 5775 5775 5774 5775 5777 5777 5777 5776 5775 5774 5773 5773 5773 5773 5773 5773 5773 5773 5773 5772 5772 5772 5772 5772 5771 5770 5769 5770 5770 5770 5771 5770 5770 5769 5768 5766 5766 5765 5764 5762 5762 5763 5761 5760 5760 5761 5761 5759 5758 5758 5758 5757 5756 5754 5751 5750 5748 5745 5744 5745 5744 5740 5740 5739 5738 5738 5737 5734 5731 5728 5726 5724 5721 5720 5718 5716 5713 5711 5708 5704 5701
5766 5766 5768 5769 5770 5771 5771 5769 5768 5768 5768 5769 5770 5770 5770 5770 5769 5768 5767 5766 5767 5767 5767 5767 5766 5765 5765 5765 5765 5765 5765 5764 5763 5764 5764 5764 5764 5764 5764 5764 5763 5762 5761 5760 5759 5758 5756 5756 5756 5755 5754 5755 5755 5754 5753 5751 5751 5751 5750 5750 5749 5747 5744 5742 5740 5741 5740 5734 5732 5737 5735 5729 5730 5732 5728 5724 5721 5719 5717 5715 5714 5712 5709 5706 5703 5700 5696 5693
5758 5758 5759 5760 5762 5764 5765 5763 5762 5762 5761 5761 5761 5763 5763 5763 5763 5762 5761 5761 5761 5760 5759 5760 5760 5758 5758 5758 5757 5757 5758 5757 5757 5758 5758 5758 5757 5757 5757 5758 5757 5756 5755 5754 5753 5751 5749 5749 5750 5749 5748 5749 5749 5748 5746 5744 5744 5744 5743 5743 5743 5740 5738 5738 5737 5736 5733 5727 5727 5731 5728 5723 5724 5726 5722 5718 5714 5712 5710 5709 5707 5705 5702 5699 5696 5692 5689 5685
5750 5750 5751 5752 5753 5754 5756 5756 5756 5756 5756 5754 5754 5755 5754 5755 5756 5755 5754 5755 5755 5753 5751 5751 5753 5752 5751 5751 5750 5750 5752 5751 5751 5752 5751 5750 5750 5750 5750 5750 5750 5750 5748 5747 5746 5745 5743 5743 5743 5742 5741 5743 5743 5741 5739 5738 5737 5737 5737 5737 5735 5733 5733 5733 5731 5730 5726 5722 5723 5724 5720 5718 5720 5718 5715 5712 5709 5706 5704 5702 5700 5698 5695 5692 5688 5685 5682 5679
5742 5742 5743 5744 5745 5746 5746 5747 5747 5748 5750 5749 5748 5748 5746 5746 5747 5747 5747 5747 5748 5748 5746 5744 5744 5744 5743 5743 5743 5743 5745 5744 5744 5745 5744 5742 5743 5744 5743 5743 5743 5742 5741 5741 5740 5739 5738 5737 5737 5735 5734 5737 5738 5735 5733 5731 5729 5730 5732 5731 5729 5728 5728 5726 5724 5722 5719 5716 5717 5715 5711 5713 5715 5711 5708 5706 5704 5701 5698 5695 5693 5690 5686 5684 5681 5677 5675 5672
5734 5734 5734 5734 5737 5739 5739 5739 5739 5739 5742 5742 5741 5741 5740 5739 5739 5738 5739 5741 5740 5740 5740 5737 5737 5737 5736 5736 5736 5736 5736 5735 5736 5738 5736 5735 5736 5737 5735 5736 5736 5734 5734 5734 5733 5732 5731 5730 5731 5729 5727 5730 5732 5728 5725 5724 5721 5723 5726 5726 5725 5723 5721 5719 5717 5715 5712 5710 5709 5706 5705 5706 5707 5703 5702 5700 5698 5694 5691 5688 5685 5681 5678 5675 5673 5670 5667 5665
5725 5725 5725 5724 5727 5730 5730 5731 5732 5732 5733 5733 5732 5733 5733 5733 5732 5729 5730 5733 5733 5733 5733 5731 5730 5729 5729 5729 5728 5727 5727 5727 5727 5728 5728 5727 5728 5729 5728 5729 5728 5727 5727 5727 5725 5725 5724 5723 5724 5722 5719 5722 5724 5720 5718 5716 5713 5716 5722 5722 5720 5716 5713 5712 5712 5710 5706 5704 5701 5700 5699 5699 5698 5696 5695 5692 5689 5686 5683 5679 5676 5673 5669 5666 5664 5662 5660 5657